(191615) = 1997 EJ43 = 2004 JE7

Discovered at Palomar on 2004-05-08 by NEAT.

Orbit

Orbit type: Main Belt

Note: WebGL enabled browser required.

epoch2024-03-31.0
epoch JD2460400.5
perihelion date2020-12-18.18135
perihelion JD2459201.68135
argument of perihelion (°)229.03314
ascending node (°)322.75268
inclination (°)7.15164
eccentricity0.1666822
perihelion distance (AU)1.8707762
Tisserand w.r.t. Jupiter3.6
ΔV w.r.t. Earth (km/sec)8.7
semimajor axis (AU)2.2449733
mean anomaly (°)351.26961
mean daily motion (°/day)0.29301310
aphelion distance (AU)2.619
period (years)3.36
P-vector [x]-0.97536241
P-vector [y]-0.14571554
P-vector [z]-0.16563561
Q-vector [x]0.20734093
Q-vector [y]-0.86194700
Q-vector [z]-0.46266305
absolute magnitude16.96
phase slope0.15
uncertainty0
referenceMPEC 2024-F50
observations used449
oppositions15
arc length (days)9871
first opposition used1997
last opposition used2024
residual rms (arc-secs)0.66
perturbers coarse indicatorM-v
perturbers precise indicator003Ek
first observation date used1997-03-10.0
last observation date used2024-03-19.0
computer nameMPCLINUX
JD of orbit computation2456877.758072
perihelion JD uncertainty (days)4.9387E-05
argument of perihelion uncertainty (°)3.8285E-05
ascending node uncertainty (°)3.3626E-05
inclination uncertainty (°)4.9741E-06
eccentricity uncertainty 4.9983E-08
perihelion distance uncertainty (AU)1.0994E-07
Minimum Orbit Intersection Distances (in AU)
for orbit epoch: 2460400.5, reference: E2024-GB3
Mercury1.45461
Venus1.16258
Earth0.88087
Mars0.27228
Jupiter2.36837
Saturn6.67279
Uranus16.5144
Neptune27.2442

Observations

455 total observations over interval: 1997 03 10.27070 – 2024 03 19.469960
These data are available for download (format description).

Date (UT) J2000 RA J2000 Dec Magn Location Ref
1997 03 10.27070 09 53 52.44 +08 36 31.5 18.7 V 704 – Lincoln Laboratory ETS, New Mexico MPC 29514
1997 03 10.35049 09 53 48.10 +08 36 28.2   704 – Lincoln Laboratory ETS, New Mexico MPC 29514
1997 03 11.28643 09 52 58.98 +08 36 00.1 18.3 V 704 – Lincoln Laboratory ETS, New Mexico MPC 29514
1997 03 11.38829 09 52 53.46 +08 35 56.1   704 – Lincoln Laboratory ETS, New Mexico MPC 29514
1997 03 12.22769 09 52 11.33 +08 35 27.7 18.3 V 704 – Lincoln Laboratory ETS, New Mexico MPC 29514
1997 03 12.32955 09 52 05.90 +08 35 23.3   704 – Lincoln Laboratory ETS, New Mexico MPC 29514
1998 08 23.31380 22 40 12.44 -05 37 00.5 20.8 V 691 – Steward Observatory, Kitt Peak-Spacewatch MPS 109980
1998 08 23.33488 22 40 11.09 -05 37 04.2 21.1 V 691 – Steward Observatory, Kitt Peak-Spacewatch MPS 109980
1998 08 23.35571 22 40 09.74 -05 37 08.2 20.7 V 691 – Steward Observatory, Kitt Peak-Spacewatch MPS 109980
2001 07 10.30431 19 46 08.02 -28 16 03.9 19.8   644 – Palomar Mountain/NEAT MPS 109980
2001 07 10.31487 19 46 07.25 -28 16 03.3 19.8   644 – Palomar Mountain/NEAT MPS 109980
2001 07 10.32548 19 46 06.44 -28 16 03.4 19.5   644 – Palomar Mountain/NEAT MPS 109980
2004 04 13.70899 14 26 54.73 -29 08 07.8 15.3 R E12 – Siding Spring Survey MPS 108157
2004 04 13.72036 14 26 54.00 -29 08 07.9 18.8 R E12 – Siding Spring Survey MPS 108157
2004 04 13.73170 14 26 53.59 -29 08 08.9 18.6 R E12 – Siding Spring Survey MPS 108157
2004 04 13.74310 14 26 52.77 -29 08 09.5 19.1 R E12 – Siding Spring Survey MPS 108157
2004 04 14.36070 14 26 19.14 -29 08 57.5 18.5 R 699 – Lowell Observatory-LONEOS MPS 108157
2004 04 14.37086 14 26 18.45 -29 08 57.7   699 – Lowell Observatory-LONEOS MPS 108157
2004 04 14.38105 14 26 17.93 -29 08 58.2   699 – Lowell Observatory-LONEOS MPS 108157
2004 04 14.39122 14 26 17.38 -29 09 00.0   699 – Lowell Observatory-LONEOS MPS 108157
2004 04 25.29725 14 15 15.99 -28 59 54.2 19.6   704 – Lincoln Laboratory ETS, New Mexico MPS 108158
2004 04 25.30769 14 15 15.34 -28 59 52.7 19.8   704 – Lincoln Laboratory ETS, New Mexico MPS 108158
2004 04 25.31820 14 15 14.57 -28 59 49.8 19.4   704 – Lincoln Laboratory ETS, New Mexico MPS 108158
2004 04 25.32892 14 15 13.84 -28 59 49.6 19.4   704 – Lincoln Laboratory ETS, New Mexico MPS 108158
2004 05 08.26638 14 02 15.91 -28 06 51.8 18.2   644 – Palomar Mountain/NEAT MPS 106834
2004 05 08.28707 14 02 14.71 -28 06 45.0 18.8   644 – Palomar Mountain/NEAT MPS 106834
2004 05 08.32663 14 02 12.40 -28 06 32.4 18.9   644 – Palomar Mountain/NEAT MPS 106834
2004 05 14.29307 13 57 18.53 -27 31 54.8 19.4 R 703 – Catalina Sky Survey MPS 106834
2004 05 14.30237 13 57 18.15 -27 31 51.8 18.5 R 703 – Catalina Sky Survey MPS 106834
2004 05 14.31153 13 57 17.65 -27 31 47.0 18.6 R 703 – Catalina Sky Survey MPS 106834
2004 05 14.32069 13 57 17.18 -27 31 44.2 18.1 R 703 – Catalina Sky Survey MPS 106834
2004 05 22.16603 13 52 33.66 -26 42 21.5   704 – Lincoln Laboratory ETS, New Mexico MPS 406891
2004 05 22.17544 13 52 33.27 -26 42 18.7   704 – Lincoln Laboratory ETS, New Mexico MPS 406891
2005 09 01.43093 00 31 53.71 +10 33 40.3 20.8 V 691 – Steward Observatory, Kitt Peak-Spacewatch MPS 140220
2005 09 01.44816 00 31 52.91 +10 33 39.4 20.7 V 691 – Steward Observatory, Kitt Peak-Spacewatch MPS 140220
2005 09 01.46549 00 31 52.12 +10 33 38.4 20.9 V 691 – Steward Observatory, Kitt Peak-Spacewatch MPS 140220
2007 01 08.40927 09 22 14.01 +19 59 59.0 20.4 V 691 – Steward Observatory, Kitt Peak-Spacewatch MPS 195516
2007 01 08.42785 09 22 13.27 +19 59 58.9 20.2 V 691 – Steward Observatory, Kitt Peak-Spacewatch MPS 195516
2007 01 08.44289 09 22 12.60 +19 59 59.1 20.3 V 691 – Steward Observatory, Kitt Peak-Spacewatch MPS 195516
2007 01 10.33311 09 20 54.20 +19 59 59.8 19.6 V 703 – Catalina Sky Survey MPS 195516
2007 01 10.34080 09 20 53.88 +20 00 00.2 19.6 V 703 – Catalina Sky Survey MPS 195516
2007 01 10.34852 09 20 53.41 +20 00 02.1 19.3 V 703 – Catalina Sky Survey MPS 195516
2007 01 10.35626 09 20 53.16 +20 00 02.4 19.2 V 703 – Catalina Sky Survey MPS 195516
2007 01 16.31335 09 15 56.19 +20 01 17.2 19.4 V 703 – Catalina Sky Survey MPS 196353
2007 01 16.31990 09 15 55.69 +20 01 17.0 19.3 V 703 – Catalina Sky Survey MPS 196353
2007 01 16.32641 09 15 55.36 +20 01 16.7 19.4 V 703 – Catalina Sky Survey MPS 196353
2007 01 16.33298 09 15 55.04 +20 01 18.0 19.1 V 703 – Catalina Sky Survey MPS 196353
2007 01 16.41509 09 15 50.26 +20 01 19.6 19.0 R 699 – Lowell Observatory-LONEOS MPS 196353
2007 01 16.42975 09 15 49.34 +20 01 17.9   699 – Lowell Observatory-LONEOS MPS 196353
2007 01 16.44442 09 15 48.56 +20 01 18.2   699 – Lowell Observatory-LONEOS MPS 196353
2007 01 16.45909 09 15 47.57 +20 01 19.4   699 – Lowell Observatory-LONEOS MPS 196353
2007 01 17.29664 09 15 00.52 +20 01 35.5 19.6 V 691 – Steward Observatory, Kitt Peak-Spacewatch MPS 196353
2007 01 17.31405 09 14 59.46 +20 01 35.9 19.6 V 691 – Steward Observatory, Kitt Peak-Spacewatch MPS 196353
2007 01 17.33140 09 14 58.41 +20 01 36.6 19.5 V 691 – Steward Observatory, Kitt Peak-Spacewatch MPS 196353
2007 01 18.51279 09 13 48.73 +20 01 59.0 18.9 R 644 – Palomar Mountain/NEAT MPS 197048
2007 01 18.52710 09 13 47.89 +20 01 59.0 19.3 R 644 – Palomar Mountain/NEAT MPS 197048
2007 01 18.53302 09 13 47.50 +20 01 59.0 18.9 R 644 – Palomar Mountain/NEAT MPS 197048
2007 01 18.54734 09 13 46.60 +20 01 59.1 18.9 R 644 – Palomar Mountain/NEAT MPS 197048
2007 01 18.55330 09 13 46.27 +20 01 59.1 19.1 R 644 – Palomar Mountain/NEAT MPS 197048
2007 01 18.56785 09 13 45.35 +20 01 59.0 19.0 R 644 – Palomar Mountain/NEAT MPS 197048
2007 01 21.27310 09 10 58.73 +20 02 54.5 19.1   704 – Lincoln Laboratory ETS, New Mexico MPS 197048
2007 01 21.28532 09 10 57.99 +20 02 54.8 19.0   704 – Lincoln Laboratory ETS, New Mexico MPS 197048
2007 01 21.29755 09 10 57.16 +20 02 54.9 19.1   704 – Lincoln Laboratory ETS, New Mexico MPS 197048
2007 01 21.30980 09 10 56.38 +20 02 55.7 19.5   704 – Lincoln Laboratory ETS, New Mexico MPS 197048
2007 01 21.32214 09 10 55.52 +20 02 55.3 19.0   704 – Lincoln Laboratory ETS, New Mexico MPS 197048
2007 01 24.25737 09 07 42.16 +20 03 46.7 19.5 V 691 – Steward Observatory, Kitt Peak-Spacewatch MPS 197048
2007 01 24.26978 09 07 41.31 +20 03 48.0 19.5   704 – Lincoln Laboratory ETS, New Mexico MPS 197048
2007 01 24.27621 09 07 40.84 +20 03 47.2 19.4 V 691 – Steward Observatory, Kitt Peak-Spacewatch MPS 197048
2007 01 24.28213 09 07 40.42 +20 03 47.6 19.7   704 – Lincoln Laboratory ETS, New Mexico MPS 197048
2007 01 24.29169 09 07 39.73 +20 03 47.5 19.4 V 691 – Steward Observatory, Kitt Peak-Spacewatch MPS 197048
2007 01 24.29440 09 07 39.56 +20 03 48.0 19.7   704 – Lincoln Laboratory ETS, New Mexico MPS 197048
2007 01 24.30666 09 07 38.72 +20 03 48.3 19.7   704 – Lincoln Laboratory ETS, New Mexico MPS 197048
2007 01 24.31894 09 07 37.85 +20 03 48.2 19.6   704 – Lincoln Laboratory ETS, New Mexico MPS 197048
2007 01 27.26180 09 04 13.98 +20 04 21.9 18.8 R 699 – Lowell Observatory-LONEOS MPS 198119
2007 01 27.26271 09 04 13.90 +20 04 22.4 18.7 R 699 – Lowell Observatory-LONEOS MPS 198119
2007 01 27.28008 09 04 12.69 +20 04 22.1   699 – Lowell Observatory-LONEOS MPS 198119
2007 01 27.28099 09 04 12.57 +20 04 23.6   699 – Lowell Observatory-LONEOS MPS 198119
2007 01 27.29836 09 04 11.32 +20 04 21.8   699 – Lowell Observatory-LONEOS MPS 198119
2007 01 27.29928 09 04 11.24 +20 04 22.3   699 – Lowell Observatory-LONEOS MPS 198119
2007 01 27.31665 09 04 10.05 +20 04 22.7   699 – Lowell Observatory-LONEOS MPS 198119
2007 01 27.31756 09 04 09.81 +20 04 22.1   699 – Lowell Observatory-LONEOS MPS 198119
2007 01 28.30574 09 02 59.63 +20 04 28.0 19.2 V 691 – Steward Observatory, Kitt Peak-Spacewatch MPS 198119
2007 01 28.32710 09 02 58.03 +20 04 28.0 19.3 V 691 – Steward Observatory, Kitt Peak-Spacewatch MPS 198119
2007 01 28.34528 09 02 56.68 +20 04 28.1 19.3 V 691 – Steward Observatory, Kitt Peak-Spacewatch MPS 198119
2007 02 07.20955 08 50 56.18 +20 01 30.9 18.8 V 703 – Catalina Sky Survey MPS 198700
2007 02 07.21609 08 50 55.68 +20 01 30.6 18.8 V 703 – Catalina Sky Survey MPS 198700
2007 02 07.22263 08 50 55.21 +20 01 29.9 19.2 V 703 – Catalina Sky Survey MPS 198700
